Regional Weather Roundup
Issued by NWS

Home | Current Version | Previous Version | Text Only | Print | Product List | Glossary On
Versions: 1 2 3 4 5 6 7 8 9 10 11 12 13 14 15 16 17 18 19 20 21 22 23 24 25 26 27 28 29 30 31 32 33 34 35 36 37 38 39 40 41 42 43 44 45 46 47 48 49 50
000
ASUS43 KIND 302309
RWRIN

WEATHER ROUNDUP FOR INDIANA
NATIONAL WEATHER SERVICE INDIANAPOLIS IN
700 PM EDT SAT AUG 30 2014

NOTE: "FAIR" INDICATES FEW OR NO CLOUDS BELOW 12,000 FEET WITH NO
SIGNIFICANT WEATHER AND/OR OBSTRUCTIONS TO VISIBILITY.

* - STATION DOES NOT REPORT WEATHER SUCH AS PRECIPITATION OR FOG.

+ - STATION NOT QUALITY CONTROLLED BY THE NATIONAL WEATHER SERVICE.
    USE DATA WITH CAUTION...ESPECIALLY DEWPOINT AND RELATIVE
    HUMIDITY OBSERVATIONS.

INZ001>003-010>013-019-020-310000-
NORTHWEST INDIANA

CITY           SKY/WX    TMP DP  RH WIND       PRES   REMARKS
GARY /AIRPORT/ PTSUNNY   77  72  83 S9        29.86R
KNOX *+        PTSUNNY   75  69  83 SW3       29.88S
LA PORTE +     CLOUDY    75  69  80 SW8       29.89S
MICHIGAN CITY+ CLOUDY    77  68  73 SW9       29.87S
MONTICELLO +   PTSUNNY   80  72  76 SW10      29.90R
RENSSELAER +   PTSUNNY   79  73  83 S10       29.89S
VALPARAISO     CLOUDY    78  70  76 SW9       29.88S

$$

LMZ046-743>745-310000-
SOUTHERN LAKE MICHIGAN

STATION/POSITION TIME  TEMP WIND        PRES
                       AIR  DIR/SP/G
                 (UTC) (F)  (DEG/KT/KT) (MB)
MICHIGAN CITY    2300   78  180/ 10/ 14   N/A

$$

INZ004-005-014>016-021>024-310000-
NORTH CENTRAL INDIANA

CITY           SKY/WX    TMP DP  RH WIND       PRES   REMARKS
GOSHEN         PTSUNNY   78  67  68 S6        29.90S
LOGANSPORT +   PTSUNNY   77  68  73 S21G26    29.93R
PERU/GRISSOM   PTSUNNY   78  73  85 SW15G23   29.94R
ROCHESTER +    PTSUNNY   81  72  74 S10       29.91S
SOUTH BEND     CLOUDY    76  70  82 SW12      29.89S
WARSAW +       PTSUNNY   79  70  73 S5        29.91R

$$

INZ006>009-017-018-025>027-310000-
NORTHEAST INDIANA

CITY           SKY/WX    TMP DP  RH WIND       PRES   REMARKS
ANGOLA *+      MOSUNNY   81  73  78 SW14      29.90S
AUBURN +       PTSUNNY   81  66  61 SW10G20   29.93R
FORT WAYNE     CLOUDY    78  70  76 S15       29.94R
HUNTINGTON +   CLOUDY    78  70  78 S10G20    29.94R

$$

INZ028-029-035-036-043>045-051>053-310000-
WEST CENTRAL INDIANA

CITY           SKY/WX    TMP DP  RH WIND       PRES   REMARKS
GREENCASTLE +  CLOUDY    73  70  88 S7        29.98S
LAFAYETTE      CLOUDY    77  70  79 S12G24    29.91R
TERRE HAUTE    CLOUDY    76  71  85 S10       29.96S

$$

INZ030>032-037>040-046>048-054>057-064-065-310000-
CENTRAL INDIANA

CITY           SKY/WX    TMP DP  RH WIND       PRES   REMARKS
CP ATTERBURY + CLOUDY    77  70  78 S8        30.00S
COLUMBUS       CLOUDY    75  73  94 S12       30.00R
FRANKFORT +    CLOUDY    77  70  78 S8        29.96S
GREENWOOD *+   CLOUDY    77  72  83 S9G16     29.99
INDIANAPOLIS   CLOUDY    77  71  82 S14       29.96S
-EAGLE CREEK   CLOUDY    77  69  76 S7        29.96S
KOKOMO *+      CLOUDY    77  68  73 SW14G23   29.95R
MARION +       CLOUDY    77  67  70 S9        29.97R
MT COMFORT *+  CLOUDY    75  75 100 S13       29.99R
SHELBYVILLE    CLOUDY    78  71  79 S6        29.99R
ZIONSVILLE +   CLOUDY    78  67  70 S13G18    29.98R

$$

INZ033-034-041-042-049-050-058-059-310000-
EAST CENTRAL INDIANA

CITY           SKY/WX    TMP DP  RH WIND       PRES   REMARKS
MUNCIE         CLOUDY    77  69  76 S13G21    29.98R

$$

INZ060-061-067>069-081>083-085>088-310000-
SOUTHWEST INDIANA

CITY           SKY/WX    TMP DP  RH WIND       PRES   REMARKS
EVANSVILLE     LGT RAIN  73  70  90 S8        30.01S
WASHINGTON +   CLOUDY    74  73  94 S10G18    29.97S

$$

INZ062-063-066-070>080-084-089>092-310000-
SOUTH CENTRAL AND SOUTHEAST INDIANA

CITY           SKY/WX    TMP DP  RH WIND       PRES   REMARKS
BLOOMINGTON    CLOUDY    75  70  84 S12       29.99F
SEYMOUR +      DRIZZLE   75  66  73 S7        30.01

$$



USA.gov is the U.S. government's official web portal to all federal, state and local government web resources and services.